Regional Weather Roundup
Issued by NWS

Home | Current Version | Previous Version | Graphics & Text | Print | Product List | Glossary On
Versions: 1 2 3 4 5 6 7 8 9 10 11 12 13 14 15 16 17 18 19 20 21 22 23 24 25 26 27 28 29 30 31 32 33 34 35 36 37 38 39 40 41 42 43 44 45 46 47 48 49 50
126
ASUS43 KLMK 262102
RWRKY
KENTUCKY REGIONAL WEATHER ROUNDUP
NATIONAL WEATHER SERVICE LOUISVILLE KY
500 PM EDT WED JUL 26 2017

NOTE "FAIR" INDICATES FEW OR NO CLOUDS BELOW 12,000 FEET
WITH NO SIGNIFICANT WEATHER AND/OR OBSTRUCTIONS TO VISIBILITY.

KYZ001>023-026-027-061>063-070>075-262200-
WESTERN AND SOUTH CENTRAL KENTUCKY

CITY           SKY/WX    TMP DP  RH WIND       PRES   REMARKS
PADUCAH        FAIR      91  74  57 SW5       29.99F HX 100
HENDERSON      FAIR      89  78  70 SW5       30.00S HX 103
OWENSBORO      FAIR      90  76  63 S9        30.00F HX 101
HOPKINSVILLE   FAIR      94  72  49 SW12      30.02F HX 102
BOWLING GREEN  PTSUNNY   95  71  45 SW8       30.03S HX 102
GLASGOW        NOT AVBL
$$

KYZ024-025-028>034-038-045-046-053-262200-
NORTH CENTRAL KENTUCKY

CITY           SKY/WX    TMP DP  RH WIND       PRES   REMARKS
LOUISVILLE/SDF PTSUNNY   91  71  51 S7        30.02F HX  97
LOUISVILLE/LOU PTSUNNY   90  73  57 S6        30.03F HX  98
FORT KNOX      FAIR      89  72  55 SE3       30.02F HX  96
$$

KYZ035>037-039>044-047>052-055>060-089>105-262200-
NORTHEAST KENTUCKY

CITY           SKY/WX    TMP DP  RH WIND       PRES   REMARKS
LEXINGTON      FAIR      87  67  51 S5        30.08F HX  90
COVINGTON      PTSUNNY   85  68  56 SW6       30.06F
FRANKFORT      FAIR      87  68  52 CALM      30.05F HX  90
$$

KYZ054-064>069-076>088-106>120-262200-
SOUTHEAST KENTUCKY

CITY           SKY/WX    TMP DP  RH WIND       PRES   REMARKS
JACKSON        FAIR      86  68  54 CALM      30.10F
LONDON         FAIR      88  65  46 VRB3      30.09F HX  90
SOMERSET       FAIR      90  64  43 S3        30.08F HX  91
MIDDLESBORO    FAIR      89  69  51 CALM      30.09F HX  93
MONTICELLO     FAIR      91  72  53 W7        30.08F HX  98
$$





USA.gov is the U.S. government's official web portal to all federal, state and local government web resources and services.